Regional Weather Roundup
Issued by NWS

Home | Current Version | Previous Version | Text Only | Print | Product List | Glossary On
Versions: 1 2 3 4 5 6 7 8 9 10 11 12 13 14 15 16 17 18 19 20 21 22 23 24 25 26 27 28 29 30 31 32 33 34 35 36 37 38 39 40 41 42 43 44 45 46 47 48 49 50
000
ASUS46 KLOX 301812
RWRCA

SOUTHERN CALIFORNIA WEATHER ROUNDUP
NATIONAL WEATHER SERVICE OXNARD CALIFORNIA
1100 AM PDT SAT AUG 30 2014

NOTE: "FAIR" INDICATES FEW OR NO CLOUDS BELOW 12,000 FEET WITH NO
SIGNIFICANT WEATHER AND/OR OBSTRUCTIONS TO VISIBILITY.

  -  STATIONS PRECEEDED BY AN ASTERISK (*) ARE NOT NWS OR FAA
     STATIONS AND ARE NOT SUBJECT TO NWS AND FAA QUALITY CONTROL.

CAZ041-042-087-301900-
LA AND ORANGE COUNTY COASTAL AREAS


CITY           SKY/WX    TMP DP  RH WIND       PRES   REMARKS
L.A. DOWNTOWN  SUNNY     80  63  55 W3        29.84S
L.A. AIRPORT   MOSUNNY   75  64  68 W9        29.85S
LONG BEACH     SUNNY     76  63  64 CALM      29.84F

CITY           SKY/WX    TMP DP  RH WIND       PRES   REMARKS
AVALON           N/A     72 N/A N/A MISG        N/A
FULLERTON      SUNNY     79  62  56 VRB3      29.83F
*GETTY CENTER    N/A     77  63  61 S5          N/A
HAWTHORNE      SUNNY     77  63  61 VRB3      29.84F
*LOS ALAMITOS  SUNNY     76  64  65 VRB5      29.84F
*REDONDO BEACH   N/A     76  65  68 CALM      29.84S
SANTA ANA      MOSUNNY   78  63  59 VRB5      29.84F
STA MONICA APT SUNNY     76  63  64 VRB5      29.85S
*UCLA            N/A    N/A N/A N/A S5        29.82F

$$

CAZ547-548-048-301900-
LA COUNTY VALLEYS AND INLAND EMPIRE


CITY           SKY/WX    TMP DP  RH WIND       PRES   REMARKS
BURBANK        SUNNY     81  58  45 SE7       29.85S
VAN NUYS       SUNNY     83  56  39 CALM      29.85S

CITY           SKY/WX    TMP DP  RH WIND       PRES   REMARKS
CORONA AIRPORT CLEAR     82  60  47 W5        29.84F
*CHATSWORTH      N/A     84  58  40 E3        29.80S
CHINO          MOSUNNY   84  57  39 VRB3      29.85F
MARCH AFB      MOSUNNY   88  48  25 VRB2      29.87F
ONTARIO        MOSUNNY   84  56  38 CALM      29.85S
*PASADENA        N/A     84  61  45 NE1         N/A
POMONA         SUNNY     82  55  39 CALM      29.88
RIVERSIDE      SUNNY     85  55  35 CALM      29.84F
SAN BERNARDINO SUNNY     84  48  28 CALM      29.86F
*WHITEMAN AP   SUNNY     81  54  39 S6        29.90R
*WOODLAND HILL   N/A     84  55  37 N3          N/A

$$

CAZ054-055-301900-
LA AND SAN BERNARDINO COUNTY MOUNTAINS


CITY           SKY/WX    TMP DP  RH WIND       PRES   REMARKS
*BIG BEAR AIRP CLEAR     79  23  12 W8        30.22S
MT WILSON NWS    N/A     86  30  13 MISG        N/A
SANDBERG       SUNNY     82  36  19 N6        30.11R

$$

CAZ028-029-059-060-099-301900-
ANTELOPE VALLEY AND SURROUNDING AREAS


CITY           SKY/WX    TMP DP  RH WIND       PRES   REMARKS
LANCASTER      SUNNY     92  36  14 W24       29.91S
PALMDALE       SUNNY     93  33  12 NW20      29.92S

CITY           SKY/WX    TMP DP  RH WIND       PRES   REMARKS
29 PALMS       SUNNY     95  28   9 W5        29.93F
BARSTOW/DAGGET SUNNY     96  27   8 W12       29.85F HX  90
BISHOP         PTSUNNY   87  30  13 CALM      29.99F
CHINA LAKE     SUNNY     90  37  15 VRB3      29.87F
EDWARDS AFB    PTSUNNY   94  30  10 W18       29.87F
MOJAVE         FAIR      91  32  12 W23G31    29.91F
NEEDLES        SUNNY    102  37  10 NE5       29.78S HX  96
VICTORVILLE    SUNNY     91  28  10 W7        29.94S

$$

CAZ039-040-301900-
VENTURA AND SANTA BARBARA COUNTY COAST


CITY           SKY/WX    TMP DP  RH WIND       PRES   REMARKS
CAMARILLO      SUNNY     80  62  54 SW8       29.84S
NWS OXNARD       N/A     76  64  65 SW2       29.84S
OXNARD AIRPORT SUNNY     72  64  76 SW8       29.85R
*POINT MUGU    MOSUNNY   79  65  62 S12       29.85R
SBA APT/GOLETA SUNNY     71  63  75 S9        29.85R
*VENTURA         N/A     74  65  73 CALM      29.90S

$$

CAZ044-045-301900-
VENTURA COUNTY VALLEYS


CITY           SKY/WX    TMP DP  RH WIND       PRES   REMARKS
*SIMI VALLEY     N/A     84  56  37 W1        29.78F
*OJAI            N/A     90  60  36 CALM      29.76F HX  90
*FILLMORE        N/A     84  62  46 CALM      29.73F

$$

CAZ053-301900-
VENTURA COUNTY MOUNTAINS


CITY           SKY/WX    TMP DP  RH WIND       PRES   REMARKS
*LOCKWOOD VLY    N/A     82  36  18 MISG        N/A
*ROSE VALLEY     N/A     97 -99   0 MISG        N/A

$$

CAZ034-035-036-301900-
CENTRAL COAST AND SANTA YNEZ VALLEY


CITY           SKY/WX    TMP DP  RH WIND       PRES   REMARKS
SAN LUIS OBISP SUNNY     91  46  21 W10       29.86S
SANTA MARIA    MOSUNNY   79  57  46 NW10      29.87S

CITY           SKY/WX    TMP DP  RH WIND       PRES   REMARKS
*CAL POLY SLO    N/A     90  45  20 NE10        N/A
*LOMPOC        SUNNY     75  61  60 W12       29.88S
*PISMO BEACH     N/A     65  61  86 SW2       29.87F
*SANTA YNEZ    FAIR      81  50  34 SW3       29.87S

$$

CAZ037-038-051-301900-
SAN LUIS OBISPO COUNTY INTERIOR AND CUYAMA VALLEY


CITY           SKY/WX    TMP DP  RH WIND       PRES   REMARKS
*CUYAMA          N/A     85  42  22 E3        29.84S
PASO ROBLES    SUNNY     83  45  26 VRB5      29.91F

$$

CAZ032-033-061-301900-
SOUTHERN DESERTS


CITY           SKY/WX    TMP DP  RH WIND       PRES   REMARKS
BLYTHE         SUNNY     99  39  12 CALM      29.75S HX  94
IMPERIAL       SUNNY    101  40  12 CALM      29.71S HX  96
PALM SPRINGS   SUNNY    104  32   8 W3        29.75S HX  97
THERMAL        SUNNY    105  35   9 VRB3      29.69S HX  99

$$

ELSEWHERE ACROSS THE WESTERN UNITED STATES AND MEXICO


CITY           SKY/WX    TMP DP  RH WIND       PRES   REMARKS
DENVER, CO     MOSUNNY   80  42  25 S9        30.03F
GRAND CANYON,  MOSUNNY   79  36  21 SW16G22   30.25S
HONOLULU, HI   MOSUNNY   81  66  61 VRB3      29.95R
KAHULUI, MAUI  SUNNY     75  66  73 N3        29.96R
LAKE TAHOE, CA SUNNY     75  31  19 VRB7G18   30.16S
LAS VEGAS, NV  PTSUNNY   95  34  11 VRB3      29.82S HX  90
MAMMOTH LAKES, FAIR      77  30  18 W17G25    30.24S
MEXICO CITY, M NOT AVBL
PHOENIX, AZ    MOSUNNY  100  45  15 SE10      29.81F HX  96
PORTLAND, OR   CLOUDY    65  59  81 S12       29.94S
RENO, NV       MOSUNNY   82  37  20 SW7       30.02F
SALT LAKE CITY CLOUDY    77  40  26 SE7       29.97R
SAN DIEGO, CA  MOSUNNY   74  63  68 S5        29.85S
SAN FRANCISCO, MOSUNNY   73  60  63 NW14      29.92R
SAN JOSE, CA   MOSUNNY   77  57  50 NW3       29.92R
SEATTLE, WA    CLOUDY    61  57  87 E7        29.92F
TIJUANA, MEX   SUNNY     77  59  53 W2        29.86F

$$

STATION/POSITION TIME  TEMP    WIND        PRES    VSBY  WAVE
                       AIR SEA DIR/SP/G                  HT/PER
                 (UTC) (F)     (DEG/KT/KT) (MB)    (MI)  (FT/S)
POINT ARGUELLO B NOT AVBL
WEST SANTA BARBA 1800   62 61  330/ 14/ 17 1010.1S         5/ 8
POINT CONCEPTION NOT AVBL
EAST SANTA BARBA 1800   64 67  210/  2/  2 1010.9R
SANTA MONICA BAY 1800   69 72  130/  4/  6 1010.7R         4/ 8


USA.gov is the U.S. government's official web portal to all federal, state and local government web resources and services.